Time,TemperatureF,DewpointF,PressureIn,WindDirection,WindDirectionDegrees,WindSpeedMPH,WindSpeedGustMPH,Humidity,HourlyPrecipIn,Conditions,Clouds,dailyrainin,SoftwareType,DateUTC
2013-03-18 00:00:00,26.2,13.0,30.06,East,80,4.6,11.6,57,0.00,,---,0.00,VWS V14.01,2013-03-18 04:00:00,
2013-03-18 00:02:00,26.2,13.0,30.06,East,80,4.6,11.6,57,0.00,,---,0.04,VWS V14.01,2013-03-18 04:02:00,
2013-03-18 00:03:00,26.2,13.0,30.06,East,80,4.6,11.6,57,0.00,,---,0.04,VWS V14.01,2013-03-18 04:03:00,
2013-03-18 00:06:00,26.2,13.0,30.06,East,80,4.0,6.3,57,0.00,,---,0.00,VWS V14.01,2013-03-18 04:06:00,
2013-03-18 00:11:00,26.0,13.3,30.06,East,80,5.3,5.3,58,0.00,,---,0.00,VWS V14.01,2013-03-18 04:11:00,
2013-03-18 00:16:00,26.0,13.3,30.06,NE,35,11.3,11.3,58,0.00,,---,0.00,VWS V14.01,2013-03-18 04:16:00,
2013-03-18 00:21:00,25.8,13.1,30.06,ESE,102,11.6,11.6,58,0.00,,---,0.00,VWS V14.01,2013-03-18 04:21:00,
2013-03-18 00:26:00,25.8,13.1,30.06,East,80,8.3,14.2,58,0.00,,---,0.00,VWS V14.01,2013-03-18 04:26:00,
2013-03-18 00:31:00,25.6,12.9,30.06,SE,125,8.9,8.9,58,0.00,,---,0.00,VWS V14.01,2013-03-18 04:31:00,
2013-03-18 00:36:00,25.6,12.9,30.06,SE,125,0.0,5.3,58,0.00,,---,0.00,VWS V14.01,2013-03-18 04:36:00,
2013-03-18 00:41:00,25.5,13.1,30.06,NW,305,7.9,7.9,59,0.00,,---,0.00,VWS V14.01,2013-03-18 04:41:00,
2013-03-18 00:46:00,25.5,13.1,30.06,SE,125,12.6,12.6,59,0.00,,---,0.00,VWS V14.01,2013-03-18 04:46:00,
2013-03-18 00:52:00,25.5,13.1,30.06,East,80,3.0,3.0,59,0.00,,---,0.00,VWS V14.01,2013-03-18 04:52:00,
2013-03-18 00:57:00,25.5,13.1,30.06,East,80,5.0,5.0,59,0.00,,---,0.00,VWS V14.01,2013-03-18 04:57:00,
2013-03-18 01:02:00,25.3,13.0,30.06,East,80,5.3,7.0,59,0.00,,---,0.00,VWS V14.01,2013-03-18 05:02:00,
2013-03-18 01:07:00,25.3,13.0,30.06,NE,35,3.0,9.6,59,0.00,,---,0.00,VWS V14.01,2013-03-18 05:07:00,
2013-03-18 01:12:00,25.3,13.0,30.06,East,80,8.3,11.3,59,0.00,,---,0.00,VWS V14.01,2013-03-18 05:12:00,
2013-03-18 01:17:00,25.3,13.4,30.06,SE,125,6.3,6.3,60,0.00,,---,0.00,VWS V14.01,2013-03-18 05:17:00,
2013-03-18 01:22:00,25.3,13.4,30.06,SE,125,5.6,5.6,60,0.00,,---,0.00,VWS V14.01,2013-03-18 05:22:00,
2013-03-18 01:27:00,25.3,13.4,30.03,ESE,102,4.0,8.6,60,0.00,,---,0.00,VWS V14.01,2013-03-18 05:27:00,
2013-03-18 01:33:00,25.3,13.4,30.03,SE,125,8.9,8.9,60,0.00,,---,0.00,VWS V14.01,2013-03-18 05:33:00,
2013-03-18 01:38:00,25.3,13.4,30.03,SW,215,3.6,6.3,60,0.00,,---,0.00,VWS V14.01,2013-03-18 05:38:00,
2013-03-18 01:43:00,25.3,13.4,30.03,East,80,8.9,8.9,60,0.00,,---,0.00,VWS V14.01,2013-03-18 05:43:00,
2013-03-18 01:48:00,25.3,13.4,30.03,ESE,102,3.6,7.3,60,0.00,,---,0.00,VWS V14.01,2013-03-18 05:48:00,
2013-03-18 01:53:00,25.1,13.6,30.03,East,80,4.3,6.3,61,0.00,,---,0.00,VWS V14.01,2013-03-18 05:53:00,
2013-03-18 01:58:00,25.1,13.6,30.03,NE,35,11.9,11.9,61,0.00,,---,0.00,VWS V14.01,2013-03-18 05:58:00,
2013-03-18 02:03:00,25.1,13.6,30.03,South,170,4.3,5.3,61,0.00,,---,0.04,VWS V14.01,2013-03-18 06:03:00,
2013-03-18 02:08:00,25.1,13.6,30.03,East,80,4.6,4.6,61,0.00,,---,0.00,VWS V14.01,2013-03-18 06:08:00,
2013-03-18 02:14:00,25.1,13.6,30.03,SE,125,6.3,6.3,61,0.00,,---,0.00,VWS V14.01,2013-03-18 06:14:00,
2013-03-18 02:19:00,25.1,13.9,30.03,SE,125,4.3,4.3,62,0.00,,---,0.00,VWS V14.01,2013-03-18 06:19:00,
2013-03-18 02:24:00,25.1,13.9,30.03,East,80,9.3,9.3,62,0.00,,---,0.00,VWS V14.01,2013-03-18 06:24:00,
2013-03-18 02:29:00,25.1,13.9,30.03,SE,125,0.0,8.9,62,0.00,,---,0.00,VWS V14.01,2013-03-18 06:29:00,
2013-03-18 02:34:00,25.1,13.9,30.03,East,80,12.9,12.9,62,0.00,,---,0.00,VWS V14.01,2013-03-18 06:34:00,
2013-03-18 02:39:00,24.9,13.8,30.03,East,80,14.6,14.6,62,0.00,,---,0.00,VWS V14.01,2013-03-18 06:39:00,
2013-03-18 02:44:00,24.9,14.1,30.00,East,80,8.3,8.3,63,0.00,,---,0.00,VWS V14.01,2013-03-18 06:44:00,
2013-03-18 02:49:00,24.9,14.1,30.00,ESE,102,3.6,3.6,63,0.00,,---,0.00,VWS V14.01,2013-03-18 06:49:00,
2013-03-18 02:54:00,24.9,14.1,30.00,East,80,5.0,5.0,63,0.00,,---,0.00,VWS V14.01,2013-03-18 06:54:00,
2013-03-18 02:59:00,24.9,14.5,30.00,East,80,8.3,8.6,64,0.00,,---,0.00,VWS V14.01,2013-03-18 06:59:00,
2013-03-18 03:04:00,24.9,14.5,30.00,ESE,102,4.3,4.3,64,0.00,,---,0.00,VWS V14.01,2013-03-18 07:04:00,
2013-03-18 03:10:00,24.9,14.5,30.00,NE,35,8.6,8.6,64,0.00,,---,0.00,VWS V14.01,2013-03-18 07:10:00,
2013-03-18 03:15:00,24.9,14.5,30.00,NE,35,10.3,10.3,64,0.00,,---,0.00,VWS V14.01,2013-03-18 07:15:00,
2013-03-18 03:20:00,24.7,14.3,30.00,SE,125,11.3,11.3,64,0.00,,---,0.00,VWS V14.01,2013-03-18 07:20:00,
2013-03-18 03:25:00,24.7,14.3,30.00,East,80,10.3,10.3,64,0.00,,---,0.00,VWS V14.01,2013-03-18 07:25:00,
2013-03-18 03:30:00,24.7,14.7,29.97,South,170,11.3,11.3,65,0.00,,---,0.00,VWS V14.01,2013-03-18 07:30:00,
2013-03-18 03:35:00,24.7,14.7,29.97,ESE,102,6.3,6.3,65,0.00,,---,0.00,VWS V14.01,2013-03-18 07:35:00,
2013-03-18 03:40:00,24.7,14.7,29.97,East,80,5.0,7.3,65,0.00,,---,0.00,VWS V14.01,2013-03-18 07:40:00,
2013-03-18 03:45:00,24.7,14.7,29.97,ESE,102,4.0,5.3,65,0.00,,---,0.00,VWS V14.01,2013-03-18 07:45:00,
2013-03-18 03:50:00,24.7,14.7,29.97,SE,125,2.0,2.0,65,0.00,,---,0.00,VWS V14.01,2013-03-18 07:50:00,
2013-03-18 03:55:00,24.7,14.7,29.97,SE,125,11.9,11.9,65,0.00,,---,0.00,VWS V14.01,2013-03-18 07:55:00,
2013-03-18 04:01:00,24.7,15.0,29.97,SE,125,17.6,17.6,66,0.00,,---,0.04,VWS V14.01,2013-03-18 08:01:00,
2013-03-18 04:06:00,24.7,15.0,29.97,East,80,4.0,4.0,66,0.00,,---,0.00,VWS V14.01,2013-03-18 08:06:00,
2013-03-18 04:11:00,24.7,15.0,29.94,East,80,4.0,4.6,66,0.00,,---,0.00,VWS V14.01,2013-03-18 08:11:00,
2013-03-18 04:16:00,24.7,14.7,29.94,ESE,102,4.3,6.0,65,0.00,,---,0.00,VWS V14.01,2013-03-18 08:16:00,
2013-03-18 04:22:00,24.7,15.0,29.94,North,350,8.3,8.3,66,0.00,,---,0.00,VWS V14.01,2013-03-18 08:22:00,
2013-03-18 04:27:00,24.7,15.0,29.94,SE,125,4.6,6.3,66,0.00,,---,0.00,VWS V14.01,2013-03-18 08:27:00,
2013-03-18 04:32:00,24.7,15.0,29.94,East,80,4.3,7.9,66,0.00,,---,0.00,VWS V14.01,2013-03-18 08:32:00,
2013-03-18 04:37:00,24.7,15.0,29.94,East,80,3.3,5.3,66,0.00,,---,0.00,VWS V14.01,2013-03-18 08:37:00,
2013-03-18 04:42:00,24.7,15.0,29.94,ESE,102,2.0,3.6,66,0.00,,---,0.00,VWS V14.01,2013-03-18 08:42:00,
2013-03-18 04:48:00,24.7,15.4,29.94,ESE,102,6.0,6.3,67,0.00,,---,0.00,VWS V14.01,2013-03-18 08:48:00,
2013-03-18 04:53:00,24.7,15.4,29.94,South,170,1.3,5.6,67,0.00,,---,0.00,VWS V14.01,2013-03-18 08:53:00,
2013-03-18 04:58:00,24.7,15.4,29.94,South,170,2.0,2.0,67,0.00,,---,0.00,VWS V14.01,2013-03-18 08:58:00,
2013-03-18 05:03:00,24.7,15.4,29.94,East,80,4.6,6.0,67,0.00,,---,0.00,VWS V14.01,2013-03-18 09:03:00,
2013-03-18 05:08:00,24.7,15.4,29.94,North,350,2.3,2.3,67,0.00,,---,0.00,VWS V14.01,2013-03-18 09:08:00,
2013-03-18 05:13:00,24.7,15.4,29.91,East,80,7.9,7.9,67,0.00,,---,0.00,VWS V14.01,2013-03-18 09:13:00,
2013-03-18 05:19:00,24.7,15.7,29.91,East,80,5.6,6.3,68,0.00,,---,0.00,VWS V14.01,2013-03-18 09:19:00,
2013-03-18 05:24:00,24.7,15.4,29.91,SE,125,4.6,7.3,67,0.00,,---,0.00,VWS V14.01,2013-03-18 09:24:00,
2013-03-18 05:29:00,24.7,15.7,29.88,NE,35,3.3,3.3,68,0.00,,---,0.00,VWS V14.01,2013-03-18 09:29:00,
2013-03-18 05:34:00,24.7,15.7,29.88,NE,35,8.6,8.6,68,0.00,,---,0.00,VWS V14.01,2013-03-18 09:34:00,
2013-03-18 05:39:00,24.7,15.7,29.88,SE,125,3.6,5.3,68,0.00,,---,0.00,VWS V14.01,2013-03-18 09:39:00,
2013-03-18 05:44:00,24.7,15.7,29.88,NE,35,4.6,4.6,68,0.00,,---,0.00,VWS V14.01,2013-03-18 09:44:00,
2013-03-18 05:49:00,24.7,15.7,29.88,ENE,58,4.0,4.0,68,0.00,,---,0.00,VWS V14.01,2013-03-18 09:49:00,
2013-03-18 05:54:00,24.7,15.7,29.88,SE,125,3.6,5.6,68,0.00,,---,0.00,VWS V14.01,2013-03-18 09:54:00,
2013-03-18 05:59:00,24.7,15.7,29.88,East,80,3.6,9.9,68,0.00,,---,0.00,VWS V14.01,2013-03-18 09:59:00,
2013-03-18 06:04:00,24.7,15.7,29.88,ENE,58,5.6,9.9,68,0.00,,---,0.00,VWS V14.01,2013-03-18 10:04:00,
2013-03-18 06:10:00,24.7,16.0,29.88,ESE,102,4.3,9.6,69,0.00,,---,0.00,VWS V14.01,2013-03-18 10:10:00,
2013-03-18 06:15:00,24.7,16.0,29.88,NE,35,2.0,10.9,69,0.00,,---,0.00,VWS V14.01,2013-03-18 10:15:00,
2013-03-18 06:20:00,24.7,16.0,29.88,NE,35,5.3,5.3,69,0.00,,---,0.00,VWS V14.01,2013-03-18 10:20:00,
2013-03-18 06:25:00,24.7,16.0,29.88,ESE,102,3.6,4.6,69,0.00,,---,0.00,VWS V14.01,2013-03-18 10:25:00,
2013-03-18 06:30:00,24.9,16.2,29.88,ENE,58,6.3,6.3,69,0.00,,---,0.00,VWS V14.01,2013-03-18 10:30:00,
2013-03-18 06:35:00,24.9,16.2,29.88,East,80,5.3,5.3,69,0.00,,---,0.00,VWS V14.01,2013-03-18 10:35:00,
2013-03-18 06:40:00,25.1,16.4,29.88,East,80,4.6,4.6,69,0.00,,---,0.00,VWS V14.01,2013-03-18 10:40:00,
2013-03-18 06:45:00,25.3,16.5,29.88,East,80,4.6,4.6,69,0.00,,---,0.00,VWS V14.01,2013-03-18 10:45:00,
2013-03-18 06:50:00,25.5,16.7,29.88,SE,125,1.3,4.6,69,0.00,,---,0.00,VWS V14.01,2013-03-18 10:50:00,
2013-03-18 06:55:00,25.5,17.0,29.88,SE,125,4.6,6.3,70,0.00,,---,0.00,VWS V14.01,2013-03-18 10:55:00,
2013-03-18 07:00:00,25.5,16.7,29.88,SE,125,4.6,4.6,69,0.00,,---,0.00,VWS V14.01,2013-03-18 11:00:00,
2013-03-18 07:06:00,25.6,16.9,29.88,East,80,7.9,7.9,69,0.00,,---,0.00,VWS V14.01,2013-03-18 11:06:00,
2013-03-18 07:11:00,25.6,17.2,29.85,East,80,7.9,7.9,70,0.00,,---,0.00,VWS V14.01,2013-03-18 11:11:00,
2013-03-18 07:16:00,25.8,17.4,29.85,East,80,5.3,5.3,70,0.00,,---,0.00,VWS V14.01,2013-03-18 11:16:00,
2013-03-18 07:22:00,26.0,17.6,29.85,East,80,5.3,5.3,70,0.00,,---,0.00,VWS V14.01,2013-03-18 11:22:00,
2013-03-18 07:27:00,26.0,17.6,29.85,East,80,9.3,9.3,70,0.00,,---,0.00,VWS V14.01,2013-03-18 11:27:00,
2013-03-18 07:32:00,26.0,17.6,29.85,East,80,9.3,9.3,70,0.00,,---,0.00,VWS V14.01,2013-03-18 11:32:00,
2013-03-18 07:37:00,26.2,17.8,29.85,East,80,2.3,9.3,70,0.00,,---,0.00,VWS V14.01,2013-03-18 11:37:00,
2013-03-18 07:42:00,26.2,17.8,29.85,East,80,2.3,2.3,70,0.00,,---,0.00,VWS V14.01,2013-03-18 11:42:00,
2013-03-18 07:47:00,26.2,18.1,29.85,East,80,2.3,2.3,71,0.00,,---,0.00,VWS V14.01,2013-03-18 11:47:00,
2013-03-18 07:53:00,26.2,18.1,29.85,East,80,2.3,2.3,71,0.00,,---,0.00,VWS V14.01,2013-03-18 11:53:00,
2013-03-18 07:58:00,26.2,18.4,29.85,East,80,2.3,2.3,72,0.00,,---,0.00,VWS V14.01,2013-03-18 11:58:00,
2013-03-18 08:03:00,26.2,18.4,29.85,East,80,2.3,2.3,72,0.00,,---,0.04,VWS V14.01,2013-03-18 12:03:00,
2013-03-18 08:08:00,26.2,18.4,29.85,East,80,2.3,2.3,72,0.00,,---,0.00,VWS V14.01,2013-03-18 12:08:00,
2013-03-18 08:14:00,26.2,18.7,29.82,East,80,2.3,2.3,73,0.00,,---,0.00,VWS V14.01,2013-03-18 12:14:00,
2013-03-18 08:19:00,26.2,19.0,29.82,East,80,2.3,2.3,74,0.00,,---,0.00,VWS V14.01,2013-03-18 12:19:00,
2013-03-18 08:24:00,26.0,19.2,29.82,East,80,2.3,2.3,75,0.00,,---,0.00,VWS V14.01,2013-03-18 12:24:00,
2013-03-18 08:29:00,26.2,19.7,29.82,East,80,2.3,2.3,76,0.00,,---,0.00,VWS V14.01,2013-03-18 12:29:00,
2013-03-18 08:34:00,26.2,19.7,29.82,East,80,2.3,2.3,76,0.00,,---,0.00,VWS V14.01,2013-03-18 12:34:00,
2013-03-18 08:39:00,26.2,19.7,29.82,East,80,2.3,2.3,76,0.00,,---,0.00,VWS V14.01,2013-03-18 12:39:00,
2013-03-18 08:45:00,26.2,19.7,29.79,East,80,2.3,2.3,76,0.00,,---,0.00,VWS V14.01,2013-03-18 12:45:00,
2013-03-18 08:50:00,26.4,19.8,29.79,East,80,2.3,2.3,76,0.00,,---,0.00,VWS V14.01,2013-03-18 12:50:00,
2013-03-18 08:55:00,26.4,19.8,29.79,East,80,2.3,2.3,76,0.00,,---,0.00,VWS V14.01,2013-03-18 12:55:00,
2013-03-18 09:00:00,26.4,20.1,29.79,East,80,2.3,2.3,77,0.00,,---,0.00,VWS V14.01,2013-03-18 13:00:00,
2013-03-18 09:05:00,26.4,20.1,29.79,East,80,2.3,2.3,77,0.00,,---,0.00,VWS V14.01,2013-03-18 13:05:00,
2013-03-18 09:10:00,26.4,20.1,29.79,East,80,2.3,2.3,77,0.00,,---,0.00,VWS V14.01,2013-03-18 13:10:00,
2013-03-18 09:15:00,26.4,20.1,29.79,East,80,2.3,2.3,77,0.00,,---,0.00,VWS V14.01,2013-03-18 13:15:00,
2013-03-18 09:20:00,26.5,20.3,29.79,East,80,2.3,2.3,77,0.00,,---,0.00,VWS V14.01,2013-03-18 13:20:00,
2013-03-18 09:26:00,26.7,20.8,29.79,East,80,2.3,2.3,78,0.00,,---,0.00,VWS V14.01,2013-03-18 13:26:00,
2013-03-18 09:31:00,26.9,20.7,29.76,East,80,2.3,2.3,77,0.00,,---,0.00,VWS V14.01,2013-03-18 13:31:00,
2013-03-18 09:37:00,27.3,21.0,29.76,East,80,2.3,2.3,77,0.00,,---,0.00,VWS V14.01,2013-03-18 13:37:00,
2013-03-18 09:42:00,27.3,21.3,29.76,East,80,2.3,2.3,78,0.00,,---,0.00,VWS V14.01,2013-03-18 13:42:00,
2013-03-18 09:47:00,27.3,21.0,29.76,ENE,58,4.0,4.0,77,0.00,,---,0.00,VWS V14.01,2013-03-18 13:47:00,
2013-03-18 09:52:00,27.4,21.2,29.76,NE,35,8.3,8.3,77,0.00,,---,0.00,VWS V14.01,2013-03-18 13:52:00,
2013-03-18 09:57:00,27.6,21.4,29.74,NE,35,8.3,8.3,77,0.00,,---,0.00,VWS V14.01,2013-03-18 13:57:00,
2013-03-18 10:02:00,27.6,21.4,29.74,ENE,58,4.6,4.6,77,0.00,,---,0.04,VWS V14.01,2013-03-18 14:02:00,
2013-03-18 10:07:00,28.0,21.7,29.74,ENE,58,4.6,4.6,77,0.00,,---,0.00,VWS V14.01,2013-03-18 14:07:00,
2013-03-18 10:12:00,28.0,21.7,29.74,ENE,58,4.6,4.6,77,0.00,,---,0.00,VWS V14.01,2013-03-18 14:12:00,
2013-03-18 10:17:00,28.2,21.9,29.74,ENE,58,4.6,4.6,77,0.00,,---,0.00,VWS V14.01,2013-03-18 14:17:00,
2013-03-18 10:22:00,28.3,22.1,29.74,ENE,58,4.6,4.6,77,0.00,,---,0.00,VWS V14.01,2013-03-18 14:22:00,
2013-03-18 10:28:00,28.5,22.2,29.74,ENE,58,4.6,4.6,77,0.00,,---,0.00,VWS V14.01,2013-03-18 14:28:00,
2013-03-18 10:33:00,28.5,22.2,29.74,ENE,58,4.6,4.6,77,0.00,,---,0.00,VWS V14.01,2013-03-18 14:33:00,
2013-03-18 10:38:00,28.7,22.4,29.74,ENE,58,4.6,4.6,77,0.00,,---,0.00,VWS V14.01,2013-03-18 14:38:00,
2013-03-18 10:43:00,28.9,22.6,29.74,ENE,58,4.6,4.6,77,0.00,,---,0.00,VWS V14.01,2013-03-18 14:43:00,
2013-03-18 10:48:00,28.9,22.6,29.74,ENE,58,4.6,4.6,77,0.00,,---,0.00,VWS V14.01,2013-03-18 14:48:00,
2013-03-18 10:53:00,28.9,22.6,29.74,ENE,58,4.6,4.6,77,0.00,,---,0.00,VWS V14.01,2013-03-18 14:53:00,
2013-03-18 10:59:00,28.9,22.9,29.74,ENE,58,9.6,9.6,78,0.00,,---,0.00,VWS V14.01,2013-03-18 14:59:00,
2013-03-18 11:04:00,28.9,22.9,29.74,East,80,5.3,11.3,78,0.00,,---,0.00,VWS V14.01,2013-03-18 15:04:00,
2013-03-18 11:09:00,28.9,23.2,29.74,NE,35,7.9,7.9,79,0.00,,---,0.00,VWS V14.01,2013-03-18 15:09:00,
2013-03-18 11:14:00,28.9,23.8,29.71,East,80,8.3,12.6,81,0.00,,---,0.00,VWS V14.01,2013-03-18 15:14:00,
2013-03-18 11:19:00,28.9,23.5,29.71,East,80,8.3,8.3,80,0.00,,---,0.00,VWS V14.01,2013-03-18 15:19:00,
2013-03-18 11:24:00,29.2,24.1,29.71,NE,35,10.9,10.9,81,0.00,,---,0.00,VWS V14.01,2013-03-18 15:24:00,
2013-03-18 11:29:00,29.2,23.9,29.71,East,80,4.6,5.6,80,0.00,,---,0.00,VWS V14.01,2013-03-18 15:29:00,
2013-03-18 11:34:00,29.2,24.1,29.71,East,80,9.3,9.3,81,0.00,,---,0.00,VWS V14.01,2013-03-18 15:34:00,
2013-03-18 11:39:00,29.2,23.9,29.71,North,350,7.3,7.3,80,0.00,,---,0.00,VWS V14.01,2013-03-18 15:39:00,
2013-03-18 11:45:00,29.4,24.0,29.71,North,350,7.3,7.3,80,0.00,,---,0.00,VWS V14.01,2013-03-18 15:45:00,
2013-03-18 11:50:00,29.4,24.3,29.71,North,350,7.3,7.3,81,0.00,,---,0.00,VWS V14.01,2013-03-18 15:50:00,
2013-03-18 11:55:00,29.4,24.6,29.71,East,80,4.0,4.0,82,0.00,,---,0.00,VWS V14.01,2013-03-18 15:55:00,
2013-03-18 12:00:00,29.6,24.8,29.71,East,80,4.0,4.0,82,0.00,,---,0.04,VWS V14.01,2013-03-18 16:00:00,
2013-03-18 12:05:00,29.6,24.8,29.71,East,80,4.0,4.0,82,0.00,,---,0.00,VWS V14.01,2013-03-18 16:05:00,
2013-03-18 12:10:00,29.6,24.8,29.71,ESE,102,4.3,4.3,82,0.00,,---,0.00,VWS V14.01,2013-03-18 16:10:00,
2013-03-18 12:16:00,29.6,25.1,29.68,SE,125,3.6,4.3,83,0.00,,---,0.00,VWS V14.01,2013-03-18 16:16:00,
2013-03-18 12:21:00,29.6,24.8,29.68,East,80,4.6,4.6,82,0.00,,---,0.00,VWS V14.01,2013-03-18 16:21:00,
2013-03-18 12:26:00,29.8,25.0,29.68,ENE,58,5.0,5.0,82,0.00,,---,0.00,VWS V14.01,2013-03-18 16:26:00,
2013-03-18 12:32:00,30.0,25.1,29.68,ENE,58,2.0,2.0,82,0.00,,---,0.00,VWS V14.01,2013-03-18 16:32:00,
2013-03-18 12:37:00,30.0,25.1,29.68,SE,125,3.6,3.6,82,0.00,,---,0.00,VWS V14.01,2013-03-18 16:37:00,
2013-03-18 12:42:00,30.1,25.3,29.68,East,80,6.3,6.3,82,0.00,,---,0.00,VWS V14.01,2013-03-18 16:42:00,
2013-03-18 12:47:00,30.3,25.5,29.68,ENE,58,4.6,4.6,82,0.00,,---,0.00,VWS V14.01,2013-03-18 16:47:00,
2013-03-18 12:53:00,30.5,25.7,29.68,SE,125,4.3,12.6,82,0.00,,---,0.00,VWS V14.01,2013-03-18 16:53:00,
2013-03-18 12:58:00,30.3,25.8,29.68,SE,125,4.6,4.6,83,0.00,,---,0.00,VWS V14.01,2013-03-18 16:58:00,
2013-03-18 13:03:00,30.3,25.8,29.68,ENE,58,3.6,4.6,83,0.00,,---,0.00,VWS V14.01,2013-03-18 17:03:00,
2013-03-18 13:08:00,30.3,26.1,29.68,NE,35,5.3,5.3,84,0.00,,---,0.00,VWS V14.01,2013-03-18 17:08:00,
2013-03-18 13:13:00,30.3,26.1,29.65,SE,125,2.3,5.0,84,0.00,,---,0.00,VWS V14.01,2013-03-18 17:13:00,
2013-03-18 13:18:00,30.3,26.1,29.65,East,80,5.6,5.6,84,0.00,,---,0.00,VWS V14.01,2013-03-18 17:18:00,
2013-03-18 13:24:00,30.5,26.2,29.65,East,80,4.3,4.3,84,0.00,,---,0.00,VWS V14.01,2013-03-18 17:24:00,
2013-03-18 13:29:00,30.5,26.5,29.65,East,80,4.0,4.0,85,0.00,,---,0.00,VWS V14.01,2013-03-18 17:29:00,
2013-03-18 13:34:00,30.5,26.5,29.65,NE,35,2.3,2.3,85,0.00,,---,0.00,VWS V14.01,2013-03-18 17:34:00,
2013-03-18 13:39:00,30.7,26.7,29.65,East,80,3.6,4.0,85,0.00,,---,0.00,VWS V14.01,2013-03-18 17:39:00,
2013-03-18 13:44:00,30.7,26.4,29.62,East,80,6.0,6.0,84,0.00,,---,0.00,VWS V14.01,2013-03-18 17:44:00,
2013-03-18 13:49:00,30.9,26.6,29.62,ESE,102,9.3,9.3,84,0.00,,---,0.00,VWS V14.01,2013-03-18 17:49:00,
2013-03-18 13:54:00,31.0,27.1,29.62,ESE,102,4.3,4.3,85,0.00,,---,0.00,VWS V14.01,2013-03-18 17:54:00,
2013-03-18 13:59:00,31.0,27.1,29.62,ESE,102,5.6,5.6,85,0.00,,---,0.00,VWS V14.01,2013-03-18 17:59:00,
2013-03-18 14:05:00,31.0,27.1,29.62,East,80,5.3,5.6,85,0.00,,---,0.00,VWS V14.01,2013-03-18 18:05:00,
2013-03-18 14:10:00,31.2,27.5,29.62,ENE,58,4.6,4.6,86,0.00,,---,0.00,VWS V14.01,2013-03-18 18:10:00,
2013-03-18 14:15:00,31.4,27.7,29.62,NE,35,4.0,4.0,86,0.00,,---,0.00,VWS V14.01,2013-03-18 18:15:00,
2013-03-18 14:20:00,31.4,27.4,29.62,East,80,7.9,7.9,85,0.00,,---,0.00,VWS V14.01,2013-03-18 18:20:00,
2013-03-18 14:25:00,31.6,27.6,29.62,NE,35,5.6,7.9,85,0.00,,---,0.00,VWS V14.01,2013-03-18 18:25:00,
2013-03-18 14:30:00,31.6,27.9,29.62,NE,35,5.6,5.6,86,0.00,,---,0.00,VWS V14.01,2013-03-18 18:30:00,
2013-03-18 14:35:00,31.6,27.9,29.62,NE,35,5.6,5.6,86,0.00,,---,0.00,VWS V14.01,2013-03-18 18:35:00,
2013-03-18 14:41:00,31.6,27.9,29.62,SE,125,7.9,7.9,86,0.00,,---,0.00,VWS V14.01,2013-03-18 18:41:00,
2013-03-18 14:46:00,31.6,27.6,29.62,South,170,7.9,7.9,85,0.00,,---,0.00,VWS V14.01,2013-03-18 18:46:00,
2013-03-18 14:51:00,31.6,27.6,29.62,SE,125,2.3,2.3,85,0.00,,---,0.00,VWS V14.01,2013-03-18 18:51:00,
2013-03-18 14:56:00,31.6,27.9,29.59,SE,125,7.9,7.9,86,0.00,,---,0.00,VWS V14.01,2013-03-18 18:56:00,
2013-03-18 15:02:00,31.6,27.9,29.59,East,80,6.3,6.3,86,0.00,,---,0.00,VWS V14.01,2013-03-18 19:02:00,
2013-03-18 15:07:00,31.8,28.3,29.59,ENE,58,4.0,4.0,87,0.00,,---,0.00,VWS V14.01,2013-03-18 19:07:00,
2013-03-18 15:12:00,31.8,28.3,29.56,South,170,1.7,1.7,87,0.00,,---,0.00,VWS V14.01,2013-03-18 19:12:00,
2013-03-18 15:17:00,31.9,28.5,29.56,ESE,102,4.3,4.3,87,0.00,,---,0.00,VWS V14.01,2013-03-18 19:17:00,
2013-03-18 15:22:00,31.9,28.2,29.56,SE,125,4.3,9.3,86,0.00,,---,0.00,VWS V14.01,2013-03-18 19:22:00,
2013-03-18 15:27:00,31.9,28.2,29.59,SE,125,9.6,9.6,86,0.00,,---,0.00,VWS V14.01,2013-03-18 19:27:00,
2013-03-18 15:33:00,31.9,28.2,29.59,SE,125,0.0,3.0,86,0.00,,---,0.00,VWS V14.01,2013-03-18 19:33:00,
2013-03-18 15:38:00,31.9,28.5,29.59,SE,125,3.6,3.6,87,0.00,,---,0.00,VWS V14.01,2013-03-18 19:38:00,
2013-03-18 15:43:00,31.9,28.5,29.59,East,80,1.7,1.7,87,0.00,,---,0.00,VWS V14.01,2013-03-18 19:43:00,
2013-03-18 15:48:00,31.9,28.5,29.59,South,170,4.6,4.6,87,0.00,,---,0.00,VWS V14.01,2013-03-18 19:48:00,
2013-03-18 15:53:00,31.9,28.5,29.59,SE,125,1.7,3.3,87,0.00,,---,0.00,VWS V14.01,2013-03-18 19:53:00,
2013-03-18 15:58:00,32.1,28.4,29.59,SE,125,2.0,2.0,86,0.00,,---,0.00,VWS V14.01,2013-03-18 19:58:00,
2013-03-18 16:04:00,32.1,28.7,29.59,ESE,102,5.0,5.0,87,0.00,,---,0.00,VWS V14.01,2013-03-18 20:04:00,
2013-03-18 16:09:00,32.1,28.7,29.59,SE,125,2.0,2.0,87,0.00,,---,0.00,VWS V14.01,2013-03-18 20:09:00,
2013-03-18 16:14:00,32.1,28.7,29.59,South,170,0.0,0.0,87,0.00,,---,0.00,VWS V14.01,2013-03-18 20:14:00,
2013-03-18 16:19:00,32.3,28.9,29.59,SE,125,1.7,1.7,87,0.00,,---,0.00,VWS V14.01,2013-03-18 20:19:00,
2013-03-18 16:24:00,32.3,28.9,29.59,SE,125,1.7,1.7,87,0.00,,---,0.00,VWS V14.01,2013-03-18 20:24:00,
2013-03-18 16:29:00,32.3,28.6,29.59,SE,125,1.7,1.7,86,0.00,,---,0.00,VWS V14.01,2013-03-18 20:29:00,
2013-03-18 16:35:00,32.3,28.6,29.59,SE,125,1.7,1.7,86,0.00,,---,0.00,VWS V14.01,2013-03-18 20:35:00,
2013-03-18 16:40:00,32.5,29.0,29.59,SW,215,1.3,1.7,87,0.00,,---,0.00,VWS V14.01,2013-03-18 20:40:00,
2013-03-18 16:45:00,32.5,29.0,29.59,SW,215,1.3,1.3,87,0.00,,---,0.00,VWS V14.01,2013-03-18 20:45:00,
2013-03-18 16:50:00,32.5,29.3,29.59,SW,215,1.3,1.3,88,0.00,,---,0.00,VWS V14.01,2013-03-18 20:50:00,
2013-03-18 16:55:00,32.5,29.3,29.59,SW,215,1.3,1.3,88,0.00,,---,0.00,VWS V14.01,2013-03-18 20:55:00,
2013-03-18 17:00:00,32.5,29.0,29.56,SW,215,1.3,1.3,87,0.00,,---,0.00,VWS V14.01,2013-03-18 21:00:00,
2013-03-18 17:06:00,32.7,29.5,29.56,SW,215,1.3,1.3,88,0.00,,---,0.00,VWS V14.01,2013-03-18 21:06:00,
2013-03-18 17:11:00,32.7,29.2,29.56,SW,215,1.3,1.3,87,0.00,,---,0.00,VWS V14.01,2013-03-18 21:11:00,
2013-03-18 17:16:00,32.7,28.9,29.56,SW,215,1.3,1.3,86,0.00,,---,0.00,VWS V14.01,2013-03-18 21:16:00,
2013-03-18 17:21:00,32.7,29.2,29.56,SW,215,1.3,1.3,87,0.00,,---,0.00,VWS V14.01,2013-03-18 21:21:00,
2013-03-18 17:26:00,32.7,29.2,29.56,SW,215,2.3,2.3,87,0.04,,---,0.04,VWS V14.01,2013-03-18 21:26:00,
2013-03-18 17:31:00,32.7,29.2,29.56,SW,215,2.3,2.3,87,0.04,,---,0.04,VWS V14.01,2013-03-18 21:31:00,
2013-03-18 17:36:00,32.7,29.5,29.56,South,170,3.3,3.3,88,0.04,,---,0.04,VWS V14.01,2013-03-18 21:36:00,
2013-03-18 17:41:00,32.8,29.7,29.56,South,170,0.0,3.0,88,0.04,,---,0.04,VWS V14.01,2013-03-18 21:41:00,
2013-03-18 17:47:00,32.8,29.7,29.56,South,170,0.0,0.0,88,0.04,,---,0.04,VWS V14.01,2013-03-18 21:47:00,
2013-03-18 17:52:00,32.7,29.2,29.56,WSW,238,0.0,0.0,87,0.04,,---,0.04,VWS V14.01,2013-03-18 21:52:00,
2013-03-18 17:57:00,32.7,29.2,29.59,SW,215,7.0,7.0,87,0.04,,---,0.04,VWS V14.01,2013-03-18 21:57:00,
2013-03-18 18:02:00,32.7,29.2,29.59,SW,215,7.0,7.0,87,0.04,,---,0.04,VWS V14.01,2013-03-18 22:02:00,
2013-03-18 18:08:00,32.7,29.2,29.59,SW,215,7.0,7.0,87,0.04,,---,0.04,VWS V14.01,2013-03-18 22:08:00,
2013-03-18 18:13:00,32.7,29.5,29.59,SW,215,7.0,7.0,88,0.04,,---,0.04,VWS V14.01,2013-03-18 22:13:00,
2013-03-18 18:18:00,32.7,29.5,29.59,SW,215,3.3,7.0,88,0.04,,---,0.04,VWS V14.01,2013-03-18 22:18:00,
2013-03-18 18:23:00,32.8,29.7,29.59,South,170,7.3,7.3,88,0.04,,---,0.04,VWS V14.01,2013-03-18 22:23:00,
2013-03-18 18:28:00,32.8,29.7,29.56,South,170,7.3,7.3,88,0.00,,---,0.04,VWS V14.01,2013-03-18 22:28:00,
2013-03-18 18:33:00,32.8,29.7,29.56,WSW,238,3.6,3.6,88,0.00,,---,0.04,VWS V14.01,2013-03-18 22:33:00,
2013-03-18 18:38:00,32.8,29.7,29.56,SW,215,2.3,3.0,88,0.00,,---,0.04,VWS V14.01,2013-03-18 22:38:00,
2013-03-18 18:44:00,32.8,29.7,29.59,WSW,238,3.6,3.6,88,0.00,,---,0.04,VWS V14.01,2013-03-18 22:44:00,
2013-03-18 18:49:00,32.8,29.7,29.59,SW,215,4.6,4.6,88,0.00,,---,0.04,VWS V14.01,2013-03-18 22:49:00,
2013-03-18 18:54:00,32.8,30.0,29.59,SW,215,4.6,4.6,89,0.00,,---,0.04,VWS V14.01,2013-03-18 22:54:00,
2013-03-18 18:59:00,32.8,30.0,29.59,West,260,4.0,4.0,89,0.00,,---,0.04,VWS V14.01,2013-03-18 22:59:00,
2013-03-18 19:04:00,32.8,30.0,29.59,SW,215,4.0,4.0,89,0.00,,---,0.04,VWS V14.01,2013-03-18 23:04:00,
2013-03-18 19:09:00,32.8,30.2,29.59,SW,215,5.0,5.0,90,0.00,,---,0.04,VWS V14.01,2013-03-18 23:09:00,
2013-03-18 19:14:00,32.8,30.5,29.59,SW,215,4.6,5.0,91,0.00,,---,0.04,VWS V14.01,2013-03-18 23:14:00,
2013-03-18 19:19:00,32.8,30.5,29.59,SW,215,6.0,6.0,91,0.00,,---,0.04,VWS V14.01,2013-03-18 23:19:00,
2013-03-18 19:24:00,32.7,30.3,29.59,SW,215,6.0,6.0,91,0.00,,---,0.04,VWS V14.01,2013-03-18 23:24:00,
2013-03-18 19:30:00,32.7,30.3,29.59,SW,215,6.0,6.0,91,0.00,,---,0.04,VWS V14.01,2013-03-18 23:30:00,
2013-03-18 19:35:00,32.7,30.3,29.59,SW,215,6.0,6.0,91,0.00,,---,0.04,VWS V14.01,2013-03-18 23:35:00,
2013-03-18 19:40:00,32.5,30.1,29.59,SW,215,6.0,6.0,91,0.00,,---,0.04,VWS V14.01,2013-03-18 23:40:00,
2013-03-18 19:45:00,32.7,30.3,29.59,SW,215,6.0,6.0,91,0.00,,---,0.04,VWS V14.01,2013-03-18 23:45:00,
2013-03-18 19:50:00,32.5,30.1,29.59,SW,215,6.0,6.0,91,0.00,,---,0.04,VWS V14.01,2013-03-18 23:50:00,
2013-03-18 19:55:00,32.5,30.4,29.59,SW,215,6.0,6.0,92,0.00,,---,0.04,VWS V14.01,2013-03-18 23:55:00,
2013-03-18 20:00:00,32.5,30.4,29.59,SW,215,6.0,6.0,92,0.00,,---,0.04,VWS V14.01,2013-03-19 00:00:00,
2013-03-18 20:05:00,32.3,30.2,29.59,SW,215,6.0,6.0,92,0.00,,---,0.04,VWS V14.01,2013-03-19 00:05:00,
2013-03-18 20:11:00,32.3,30.5,29.62,SW,215,6.0,6.0,93,0.00,,---,0.04,VWS V14.01,2013-03-19 00:11:00,
2013-03-18 20:16:00,32.1,30.3,29.62,SW,215,6.0,6.0,93,0.00,,---,0.04,VWS V14.01,2013-03-19 00:16:00,
2013-03-18 20:21:00,32.1,30.1,29.62,SW,215,6.0,6.0,92,0.00,,---,0.04,VWS V14.01,2013-03-19 00:21:00,
2013-03-18 20:26:00,32.1,30.1,29.62,SW,215,6.0,6.0,92,0.00,,---,0.04,VWS V14.01,2013-03-19 00:26:00,
2013-03-18 20:31:00,32.1,30.1,29.62,SW,215,6.0,6.0,92,0.00,,---,0.04,VWS V14.01,2013-03-19 00:31:00,
2013-03-18 20:36:00,32.1,30.3,29.62,SW,215,6.0,6.0,93,0.00,,---,0.04,VWS V14.01,2013-03-19 00:36:00,
2013-03-18 20:41:00,32.1,30.3,29.62,SW,215,6.0,6.0,93,0.00,,---,0.04,VWS V14.01,2013-03-19 00:41:00,
2013-03-18 20:47:00,32.1,30.3,29.62,SW,215,6.0,6.0,93,0.00,,---,0.04,VWS V14.01,2013-03-19 00:47:00,
2013-03-18 20:52:00,32.1,30.3,29.62,SW,215,6.0,6.0,93,0.00,,---,0.04,VWS V14.01,2013-03-19 00:52:00,
2013-03-18 20:57:00,32.1,30.3,29.62,SW,215,6.0,6.0,93,0.00,,---,0.04,VWS V14.01,2013-03-19 00:57:00,
2013-03-18 21:02:00,32.1,30.3,29.62,SW,215,9.6,9.6,93,0.00,,---,0.04,VWS V14.01,2013-03-19 01:02:00,
2013-03-18 21:07:00,32.1,30.6,29.62,SW,215,11.9,11.9,94,0.00,,---,0.04,VWS V14.01,2013-03-19 01:07:00,
2013-03-18 21:12:00,32.1,30.6,29.62,SW,215,11.9,11.9,94,0.00,,---,0.04,VWS V14.01,2013-03-19 01:12:00,
2013-03-18 21:17:00,32.1,30.3,29.62,SW,215,11.9,11.9,93,0.00,,---,0.04,VWS V14.01,2013-03-19 01:17:00,
2013-03-18 21:23:00,32.1,30.3,29.62,SW,215,11.9,11.9,93,0.00,,---,0.04,VWS V14.01,2013-03-19 01:23:00,
2013-03-18 21:28:00,32.1,30.3,29.62,SW,215,11.9,11.9,93,0.00,,---,0.04,VWS V14.01,2013-03-19 01:28:00,
2013-03-18 21:33:00,32.1,30.3,29.62,SW,215,11.9,11.9,93,0.00,,---,0.04,VWS V14.01,2013-03-19 01:33:00,
2013-03-18 21:38:00,32.1,30.3,29.62,SW,215,11.9,11.9,93,0.00,,---,0.04,VWS V14.01,2013-03-19 01:38:00,
2013-03-18 21:43:00,32.1,30.3,29.62,SW,215,11.9,11.9,93,0.00,,---,0.04,VWS V14.01,2013-03-19 01:43:00,
2013-03-18 21:48:00,32.3,30.5,29.62,SW,215,11.9,11.9,93,0.00,,---,0.04,VWS V14.01,2013-03-19 01:48:00,
2013-03-18 21:54:00,32.3,30.5,29.62,West,260,5.6,5.6,93,0.00,,---,0.04,VWS V14.01,2013-03-19 01:54:00,
2013-03-18 21:59:00,32.3,30.5,29.62,West,260,5.0,5.0,93,0.00,,---,0.04,VWS V14.01,2013-03-19 01:59:00,
2013-03-18 22:04:00,32.3,30.5,29.62,West,260,5.0,5.0,93,0.00,,---,0.04,VWS V14.01,2013-03-19 02:04:00,
2013-03-18 22:09:00,32.3,30.5,29.62,SW,215,9.3,9.3,93,0.00,,---,0.04,VWS V14.01,2013-03-19 02:09:00,
2013-03-18 22:14:00,32.3,30.5,29.62,SW,215,9.3,9.3,93,0.00,,---,0.04,VWS V14.01,2013-03-19 02:14:00,
2013-03-18 22:19:00,32.5,30.7,29.62,SW,215,9.3,9.3,93,0.00,,---,0.04,VWS V14.01,2013-03-19 02:19:00,
2013-03-18 22:25:00,32.3,30.5,29.62,SW,215,9.3,9.3,93,0.00,,---,0.04,VWS V14.01,2013-03-19 02:25:00,
2013-03-18 22:30:00,32.5,30.7,29.62,SW,215,9.3,9.3,93,0.00,,---,0.04,VWS V14.01,2013-03-19 02:30:00,
2013-03-18 22:35:00,32.5,30.7,29.62,SW,215,9.3,9.3,93,0.00,,---,0.04,VWS V14.01,2013-03-19 02:35:00,
2013-03-18 22:40:00,32.3,30.5,29.62,SW,215,9.3,9.3,93,0.00,,---,0.04,VWS V14.01,2013-03-19 02:40:00,
2013-03-18 22:45:00,32.3,30.5,29.62,SW,215,9.3,9.3,93,0.00,,---,0.04,VWS V14.01,2013-03-19 02:45:00,
2013-03-18 22:51:00,32.1,30.3,29.62,SW,215,14.2,14.2,93,0.00,,---,0.04,VWS V14.01,2013-03-19 02:51:00,
2013-03-18 22:56:00,32.1,30.3,29.65,West,260,23.5,23.5,93,0.00,,---,0.04,VWS V14.01,2013-03-19 02:56:00,
2013-03-18 23:01:00,31.9,29.9,29.65,West,260,23.5,23.5,92,0.00,,---,0.04,VWS V14.01,2013-03-19 03:01:00,
2013-03-18 23:06:00,31.8,29.4,29.65,West,260,23.5,23.5,91,0.00,,---,0.04,VWS V14.01,2013-03-19 03:06:00,
2013-03-18 23:11:00,31.6,28.7,29.65,West,260,23.5,23.5,89,0.00,,---,0.04,VWS V14.01,2013-03-19 03:11:00,
2013-03-18 23:16:00,31.2,28.1,29.65,West,260,23.5,23.5,88,0.00,,---,0.04,VWS V14.01,2013-03-19 03:16:00,
2013-03-18 23:21:00,31.0,27.9,29.65,West,260,15.9,15.9,88,0.00,,---,0.04,VWS V14.01,2013-03-19 03:21:00,
2013-03-18 23:26:00,30.9,27.2,29.65,West,260,15.9,15.9,86,0.00,,---,0.04,VWS V14.01,2013-03-19 03:26:00,
2013-03-18 23:31:00,30.7,27.0,29.65,West,260,15.9,15.9,86,0.00,,---,0.04,VWS V14.01,2013-03-19 03:31:00,
2013-03-18 23:36:00,30.5,26.8,29.65,West,260,16.2,16.2,86,0.00,,---,0.04,VWS V14.01,2013-03-19 03:36:00,
2013-03-18 23:42:00,30.3,26.4,29.65,West,260,16.2,16.2,85,0.00,,---,0.04,VWS V14.01,2013-03-19 03:42:00,
2013-03-18 23:47:00,30.1,25.9,29.65,West,260,16.2,16.2,84,0.00,,---,0.04,VWS V14.01,2013-03-19 03:47:00,
2013-03-18 23:52:00,29.8,25.3,29.65,West,260,16.2,16.2,83,0.00,,---,0.04,VWS V14.01,2013-03-19 03:52:00,
2013-03-18 23:57:00,29.6,25.1,29.65,West,260,12.9,12.9,83,0.00,,---,0.04,VWS V14.01,2013-03-19 03:57:00,